KLRIVER36 Weather Reports


time (UTC)temp
F
wind
direction
speed
knots
gust
knots
rain 1hr
in
rain 24hr
in
rain mn
in
humidity
%
barometer
mb
20260505011605 69 0 0.0 0.0 0.00 0.00 0.00 62 1014.0
20260505011054 69 0 0.0 0.0 0.00 0.00 0.00 61 1014.0
20260505010553 70 0 0.0 0.0 0.00 0.00 0.00 61 1013.9
20260505010051 70 0 0.0 0.0 0.00 0.00 0.00 61 1014.0
20260505005553 70 0 0.0 1.7 0.00 0.00 0.00 60 1014.1
20260505005054 70 0 0.0 1.7 0.00 0.00 0.00 59 1014.3
20260505004555 70 219 0.0 0.9 0.00 0.00 0.00 59 1014.4
20260505004053 71 0 0.0 0.9 0.00 0.00 0.00 59 1014.3
20260505003557 71 0 0.0 1.7 0.00 0.00 0.00 58 1014.2
20260505003055 71 0 0.0 1.7 0.00 0.00 0.00 58 1014.2
20260505002556 71 145 0.0 0.9 0.00 0.00 0.00 57 1014.3
20260505002052 72 0 0.0 1.7 0.00 0.00 0.00 57 1014.3
20260505001604 72 0 0.0 2.6 0.00 0.00 0.00 55 1014.3
20260505001055 72 170 0.0 2.6 0.00 0.00 0.00 55 1014.3
20260505000553 72 150 0.0 1.7 0.00 0.00 0.00 55 1014.2
20260505000136 72 133 0.0 2.6 0.00 0.00 0.00 54 1014.1
20260504235555 73 159 0.0 3.5 0.00 0.00 0.00 54 1014.1
20260504235053 73 124 0.9 3.5 0.00 0.00 0.00 54 1014.2
20260504234611 73 117 0.9 5.2 0.00 0.00 0.00 53 1014.2
20260504234053 73 148 0.9 5.2 0.00 0.00 0.00 52 1014.2
20260504233556 74 134 1.7 5.2 0.00 0.00 0.00 51 1014.4
20260504233104 74 157 0.9 2.6 0.00 0.00 0.00 51 1014.4
20260504232553 75 142 0.0 3.5 0.00 0.00 0.00 50 1014.4
20260504232052 75 139 1.7 4.3 0.00 0.00 0.00 49 1014.4
20260504231557 75 162 0.9 4.3 0.00 0.00 0.00 48 1014.4
20260504231052 76 163 0.9 2.6 0.00 0.00 0.00 49 1014.5
20260504230552 76 176 0.0 2.6 0.00 0.00 0.00 47 1014.7
20260504230053 76 143 0.0 3.5 0.00 0.00 0.00 47 1014.7
20260504225554 76 141 0.9 3.5 0.00 0.00 0.00 47 1014.6
20260504225053 76 333 0.9 3.5 0.00 0.00 0.00 46 1014.6
20260504224609 75 164 0.9 3.5 0.00 0.00 0.00 48 1014.6
20260504224053 76 139 0.9 3.5 0.00 0.00 0.00 46 1014.8
20260504223555 76 0 0.9 8.7 0.00 0.00 0.00 46 1014.9
20260504223100 76 91 1.7 8.7 0.00 0.00 0.00 45 1014.9
20260504222553 76 129 0.9 4.3 0.00 0.00 0.00 45 1015.0
20260504222053 76 146 0.9 4.3 0.00 0.00 0.00 45 1015.1
20260504221556 76 135 0.9 5.2 0.00 0.00 0.00 43 1015.0
20260504221052 76 103 0.9 7.8 0.00 0.00 0.00 44 1015.3
20260504220558 76 113 2.6 7.8 0.00 0.00 0.00 43 1015.2
20260504220059 77 188 0.9 6.1 0.00 0.00 0.00 44 1015.1
20260504215553 77 202 1.7 7.0 0.00 0.00 0.00 44 1015.2
20260504215056 76 196 2.6 7.0 0.00 0.00 0.00 44 1015.1
20260504214553 76 154 1.7 6.1 0.00 0.00 0.00 44 1015.0
20260504214053 76 183 2.6 6.1 0.00 0.00 0.00 44 1015.0
20260504213553 76 228 1.7 5.2 0.00 0.00 0.00 44 1015.0
20260504213125 77 134 0.9 3.5 0.00 0.00 0.00 44 1015.2
20260504212554 76 146 0.9 6.1 0.00 0.00 0.00 44 1015.0
20260504212055 77 136 1.7 6.1 0.00 0.00 0.00 43 1015.3
20260504211559 77 224 0.9 5.2 0.00 0.00 0.00 41 1015.4
20260504211053 77 195 1.7 5.2 0.00 0.00 0.00 41 1015.3
20260504210553 78 143 0.9 5.2 0.00 0.00 0.00 40 1015.1
20260504210058 78 131 0.9 4.3 0.00 0.00 0.00 39 1015.2
20260504205553 78 119 0.9 7.0 0.00 0.00 0.00 39 1015.2
20260504205053 78 89 0.9 7.0 0.00 0.00 0.00 39 1015.4
20260504204556 78 144 1.7 6.1 0.00 0.00 0.00 38 1015.5
20260504204053 78 268 2.6 6.1 0.00 0.00 0.00 39 1015.6
20260504203557 78 105 1.7 6.1 0.00 0.00 0.00 40 1015.7
20260504203117 79 180 0.9 5.2 0.00 0.00 0.00 38 1015.7
20260504202553 79 134 0.0 5.2 0.00 0.00 0.00 39 1015.8
20260504202054 78 189 2.6 5.2 0.00 0.00 0.00 38 1015.9
20260504201552 79 162 0.9 5.2 0.00 0.00 0.00 38 1016.1
20260504201057 79 0 0.9 5.2 0.00 0.00 0.00 39 1016.2
20260504200556 79 186 1.7 5.2 0.00 0.00 0.00 38 1016.4
20260504200057 79 174 2.6 6.1 0.00 0.00 0.00 37 1016.5
20260504195601 79 149 0.9 6.1 0.00 0.00 0.00 38 1016.6
20260504195059 80 117 1.7 4.3 0.00 0.00 0.00 37 1016.7
20260504194604 80 169 0.9 7.8 0.00 0.00 0.00 38 1016.7
20260504194056 80 173 0.9 7.8 0.00 0.00 0.00 39 1016.8
20260504193554 79 195 0.9 6.1 0.00 0.00 0.00 36 1016.9
20260504193111 79 163 2.6 7.0 0.00 0.00 0.00 38 1016.8
20260504192552 79 160 0.9 7.0 0.00 0.00 0.00 38 1016.9
20260504192053 79 157 0.9 5.2 0.00 0.00 0.00 38 1017.2
20260504191555 79 162 2.6 6.1 0.00 0.00 0.00 39 1017.0
20260504191054 78 204 2.6 6.1 0.00 0.00 0.00 39 1016.9
20260504190557 77 185 1.7 7.0 0.00 0.00 0.00 39 1017.0
20260504190115 77 179 2.6 7.0 0.00 0.00 0.00 39 1017.3
20260504185554 78 96 3.5 7.0 0.00 0.00 0.00 39 1017.3
20260504185053 78 201 2.6 6.1 0.00 0.00 0.00 40 1017.3
20260504184606 77 186 2.6 6.1 0.00 0.00 0.00 40 1017.4
20260504184053 77 150 2.6 7.8 0.00 0.00 0.00 41 1017.3
20260504183559 77 141 3.5 7.8 0.00 0.00 0.00 41 1017.5
20260504183056 77 191 1.7 5.2 0.00 0.00 0.00 41 1017.5
20260504182557 77 203 2.6 7.0 0.00 0.00 0.00 41 1017.6
20260504182055 77 161 2.6 7.0 0.00 0.00 0.00 43 1017.5
20260504181555 77 182 1.7 5.2 0.00 0.00 0.00 42 1017.5
20260504181054 76 113 2.6 5.2 0.00 0.00 0.00 42 1017.5
20260504180553 76 179 2.6 5.2 0.00 0.00 0.00 42 1017.5
20260504180055 77 129 1.7 7.0 0.00 0.00 0.00 42 1017.6
20260504175556 77 162 0.9 7.0 0.00 0.00 0.00 42 1017.5
20260504175057 76 179 2.6 7.8 0.00 0.00 0.00 43 1017.4
20260504174602 77 203 1.7 7.8 0.00 0.00 0.00 42 1017.6
20260504174053 76 178 1.7 5.2 0.00 0.00 0.00 42 1017.7
20260504173552 77 160 1.7 6.1 0.00 0.00 0.00 43 1017.7
20260504173058 76 171 0.9 7.8 0.00 0.00 0.00 45 1017.6
20260504172555 76 205 2.6 7.8 0.00 0.00 0.00 45 1017.7
20260504172101 76 180 0.9 7.8 0.00 0.00 0.00 44 1017.5
20260504171555 76 46 2.6 7.8 0.00 0.00 0.00 46 1017.7
20260504171057 76 163 2.6 7.0 0.00 0.00 0.00 44 1017.7
20260504170554 75 180 2.6 7.0 0.00 0.00 0.00 45 1017.7
20260504151053 73 190 0.9 3.5 0.00 0.00 0.00 47 1018.4
20260504150553 74 0 0.0 2.6 0.00 0.00 0.00 49 1018.4
20260504141056 69 205 0.0 1.7 0.00 0.00 0.00 59 1018.5
20260504140556 68 0 0.0 1.7 0.00 0.00 0.00 60 1018.4
20260504140109 68 224 0.0 1.7 0.00 0.00 0.00 60 1018.5
20260504130555 64 243 0.0 0.9 0.00 0.00 0.00 72 1018.6
20260504110554 55 0 0.0 0.0 0.00 0.00 0.00 86 1017.7
20260504110117 55 0 0.0 0.0 0.00 0.00 0.00 86 1017.6
20260504100555 57 0 0.0 0.0 0.00 0.00 0.00 83 1017.8
20260504100104 57 0 0.0 0.0 0.00 0.00 0.00 84 1018.0
20260504090119 56 0 0.0 0.0 0.00 0.00 0.00 84 1018.1
20260504081556 57 0 0.0 0.0 0.00 0.00 0.00 83 1017.7
20260504081054 57 0 0.0 0.0 0.00 0.00 0.00 82 1017.8
20260504080556 57 0 0.0 0.0 0.00 0.00 0.00 81 1017.9
20260504060103 60 0 0.0 0.0 0.00 0.00 0.00 76 1019.1
20260504050554 61 0 0.0 0.0 0.00 0.00 0.00 72 1019.4
20260504050107 61 0 0.0 0.0 0.00 0.00 0.00 71 1019.5
20260504045557 62 0 0.0 0.0 0.00 0.00 0.00 71 1019.5
20260504045054 62 0 0.0 0.9 0.00 0.00 0.00 70 1019.5
20260504044603 63 0 0.0 1.7 0.00 0.00 0.00 70 1019.5
20260504044054 63 0 0.0 1.7 0.00 0.00 0.00 69 1019.6
20260504043555 63 0 0.0 1.7 0.00 0.00 0.00 69 1019.6
20260504043056 63 0 0.0 1.7 0.00 0.00 0.00 69 1019.7
20260504042554 63 205 0.0 1.7 0.00 0.00 0.00 70 1019.6
20260504042053 63 0 0.0 1.7 0.00 0.00 0.00 70 1019.6
20260504041556 63 213 0.9 1.7 0.00 0.00 0.00 70 1019.7
20260504041053 63 218 0.9 1.7 0.00 0.00 0.00 70 1019.8
20260504040553 63 195 0.0 1.7 0.00 0.00 0.00 70 1019.7
20260504040108 63 195 0.0 2.6 0.00 0.00 0.00 70 1019.7
20260504035555 63 0 0.9 2.6 0.00 0.00 0.00 70 1019.6
20260504035055 63 193 0.9 2.6 0.00 0.00 0.00 70 1019.7
20260504034603 63 191 0.0 1.7 0.00 0.00 0.00 69 1019.6
20260504034054 63 0 0.0 1.7 0.00 0.00 0.00 69 1019.6
20260504033554 63 188 0.0 1.7 0.00 0.00 0.00 70 1019.6
20260504033113 62 0 0.0 0.9 0.00 0.00 0.00 70 1019.6
20260504032556 62 0 0.0 0.9 0.00 0.00 0.00 70 1019.7
20260504032054 63 0 0.0 0.0 0.00 0.00 0.00 69 1019.6
20260504031556 63 0 0.0 0.0 0.00 0.00 0.00 68 1019.7
20260504031054 63 0 0.0 0.0 0.00 0.00 0.00 67 1019.7
20260504030555 64 0 0.0 0.0 0.00 0.00 0.00 67 1019.6
20260504030056 63 0 0.0 0.0 0.00 0.00 0.00 66 1019.5
20260504025552 63 0 0.0 0.0 0.00 0.00 0.00 66 1019.5
20260504025053 64 0 0.0 0.0 0.00 0.00 0.00 66 1019.5
20260504024605 64 0 0.0 0.0 0.00 0.00 0.00 65 1019.5
20260504024052 64 0 0.0 0.0 0.00 0.00 0.00 64 1019.5
20260504023553 65 0 0.0 0.0 0.00 0.00 0.00 64 1019.4
20260504023055 65 0 0.0 0.0 0.00 0.00 0.00 63 1019.3
20260504022552 65 0 0.0 0.0 0.00 0.00 0.00 64 1019.4
20260504022053 65 0 0.0 0.0 0.00 0.00 0.00 62 1019.4
20260504021554 65 0 0.0 0.0 0.00 0.00 0.00 62 1019.3
20260504021054 65 0 0.0 0.0 0.00 0.00 0.00 61 1019.2
20260504020553 65 0 0.0 0.0 0.00 0.00 0.00 61 1019.2
20260504020057 66 0 0.0 0.0 0.00 0.00 0.00 60 1019.1
20260504015553 66 0 0.0 0.0 0.00 0.00 0.00 61 1018.9
20260504015056 66 0 0.0 0.0 0.00 0.00 0.00 60 1019.0
20260504014558 66 0 0.0 0.0 0.00 0.00 0.00 58 1018.9
20260504014053 66 0 0.0 1.7 0.00 0.00 0.00 58 1019.0
20260504013552 66 0 0.0 1.7 0.00 0.00 0.00 58 1018.9
20260504013053 66 0 0.0 1.7 0.00 0.00 0.00 57 1018.8
20260504012552 67 0 0.0 0.9 0.00 0.00 0.00 55 1018.8
20260504012052 67 0 0.0 0.9 0.00 0.00 0.00 55 1018.7